This is the latest recevied weather packets stored in our database for station/object K1AWR. If no packets are shown the sender has not sent any weather packets the latest 10 day(s).
| Time | Temp. | Humidity | Pressure | Rain* | Wind** | Luminosity | Snow |
|---|---|---|---|---|---|---|---|
| 1778242554 | 10° C | 54% | 1012.3 hPa | 0 mm | - | 248 W/m² | - |
| 1778242251 | 10° C | 54% | 1012.5 hPa | 0 mm | - | 100 W/m² | - |
| 1778241948 | 10° C | 54% | 1012.2 hPa | 0 mm | - | 91 W/m² | - |
| 1778241647 | 10° C | 54% | 1012.3 hPa | 0 mm | - | 93 W/m² | - |
| 1778241344 | 10° C | 54% | 1012.4 hPa | 0 mm | - | 98 W/m² | - |
| 1778241040 | 9.44° C | 54% | 1012.2 hPa | 0 mm | - | 93 W/m² | - |
| 1778240737 | 9.44° C | 53% | 1012.2 hPa | 0 mm | - | 84 W/m² | - |
| 1778240433 | 9.44° C | 53% | 1012.2 hPa | 0 mm | - | 86 W/m² | - |
| 1778240131 | 9.44° C | 53% | 1011.9 hPa | 0 mm | - | 82 W/m² | - |
| 1778239829 | 9.44° C | 53% | 1012.2 hPa | 0 mm | - | 107 W/m² | - |
| 1778239525 | 8.89° C | 54% | 1012.2 hPa | 0 mm | - | 106 W/m² | - |
| 1778239222 | 8.89° C | 61% | 1012 hPa | 0 mm | - | 52 W/m² | - |
| 1778238919 | 8.33° C | 55% | 1012.1 hPa | 0 mm | - | 45 W/m² | - |
| 1778238616 | 7.78° C | 58% | 1012 hPa | 0 mm | - | 37 W/m² | - |
| 1778238314 | 7.78° C | 58% | 1011.9 hPa | 0 mm | - | 29 W/m² | - |
| 1778238009 | 7.22° C | 62% | 1012.1 hPa | 0 mm | - | 27 W/m² | - |
| 1778237704 | 6.67° C | 64% | 1012 hPa | 0 mm | - | 25 W/m² | - |
| 1778237402 | 6.11° C | 69% | 1011.8 hPa | 0 mm | - | 23 W/m² | - |
| 1778237100 | 6.11° C | 69% | 1011.9 hPa | 0 mm | - | 22 W/m² | - |
| 1778236796 | 6.11° C | 69% | 1011.8 hPa | 0 mm | - | 20 W/m² | - |
| 1778236493 | 5.56° C | 68% | 1011.7 hPa | 0 mm | - | 19 W/m² | - |
| 1778236189 | 5.56° C | 70% | 1011.6 hPa | 0 mm | - | 17 W/m² | - |
| 1778235888 | 5.56° C | 67% | 1011.7 hPa | 0 mm | - | 16 W/m² | - |
| 1778235585 | 5.56° C | 66% | 1011.7 hPa | 0 mm | - | 13 W/m² | - |
| 1778235282 | 5.56° C | 68% | 1011.5 hPa | 0 mm | - | 11 W/m² | - |
* Rain latest hour (hover to see other rain measurements)
** Current wind speed in m/s (hover to see current wind gust speed)